Simultaneous Nadir Overpasses (SNOs) Predictions

Prediction of SNOs between METOP-A and NOAA-19 Satellite Orbit:

Table of predicted SNOs for the next 14.0 days since TLE Epoch: 8/31/2013
Index Date (METOP-A) Time (METOP-A) Lat,Lon (METOP-A) SZA (METOP-A ) Date (NOAA-19) Time (NOAA-19) Lat,Lon (NOAA-19) SZA (NOAA-19 ) Distance(km) Time Diff (sec)
1 09/07/2013 01:00:37 74.15, 159.66 68.05 09/07/2013 00:59:29 74.13, 157.07 68.12 78.77 68
2 09/07/2013 01:51:29 -73.63, -34.27 112.43 09/07/2013 01:50:15 -73.61, -34.38 112.43 3.80 74
3 09/07/2013 02:42:10 73.58, 132.96 67.55 09/07/2013 02:41:22 73.57, 132.93 67.55 1.40 48
4 09/07/2013 03:32:52 -73.56, -59.77 112.47 09/07/2013 03:32:18 -73.54, -59.73 112.48 1.85 34
5 09/07/2013 04:23:33 73.51, 107.46 67.51 09/07/2013 04:23:25 73.51, 107.58 67.50 3.67 8
6
